{"data":{"norad_id":69146,"intl_designator":"2026-110Y","name":"STARLINK-37639","alt_names":[],"object_type":"PAYLOAD","status":"ACTIVE","operator":null,"country":"US","launch_date":"2026-05-20","launch_site_code":"AFWTR","launch_vehicle":null,"mission":null,"orbit_class":"UNKNOWN","rcs_meters":null,"size_class":null,"mass_kg":null,"dimensions":null,"purposes":["comms"],"wikipedia_slug":null,"has_3d_model":false,"image_url":null,"decayed_at":null,"tle_current":{"epoch":"2026-09-19T23:56:41.390592Z","epoch_age_seconds":66580,"freshness":"FRESH","line1":"1 69146U 26110Y   26262.99770128  .00012773  00000+0  39697-3 0  9993","line2":"2 69146  97.2827  98.1368 0000910 129.3833 230.7490 15.33472302 20149","mean_motion":15.33472302,"eccentricity":9.1e-5,"inclination_deg":97.2827,"raan_deg":98.1368,"arg_perigee_deg":129.3833,"mean_anomaly_deg":230.749,"bstar":0.00039697,"rev_number":2014,"period_min":93.904532747146,"perigee_km":464.83917663602,"apogee_km":466.08471164385,"semimajor_km":6843.5989441399,"source":"CELESTRAK","updated_at":"2026-09-20T09:00:44.088760Z"}}}